Location: Burbank
(38.7788°N, 114.0429°W)
Time: 05:18:29
(UTC+00:00)

S-56A Canister/Altair - All Passes

Search period start: 10 May 2026 00:00
Search period end: 20 May 2026 00:00
Orbit: 633 x 2484 km, 38.9° (Epoch: 9 May)

Date Brightness Start Highest point End Pass type
(mag) Time Alt. Az. Time Alt. Az. Time Alt. Az.
10 May - 05:11:41 10° SW 05:15:53 42° SSE 05:20:47 10° E visible
10 May - 07:14:20 10° W 07:19:11 90° N 07:25:58 10° E visible
10 May - 09:17:18 10° W 09:23:09 74° SSW 09:32:02 10° ESE visible
10 May - 11:20:42 10° W 11:27:24 37° SSW 11:36:59 10° SSE visible
10 May - 13:28:20 10° WSW 13:31:53 12° SW 13:35:51 10° SSW daylight
11 May - 04:37:09 10° SW 04:41:11 35° SSE 04:45:37 10° E visible
11 May - 06:39:42 10° W 06:44:20 87° S 06:50:31 10° E visible
11 May - 08:42:41 10° W 08:48:09 78° SSW 08:56:18 10° ESE visible
11 May - 10:45:56 10° W 10:52:15 40° SSW 11:01:26 10° SE visible
11 May - 12:52:20 10° WSW 12:56:38 14° SW 13:01:39 10° S daylight
12 May - 04:02:38 10° SSW 04:06:30 29° SSE 04:10:30 10° E visible
12 May - 06:05:03 10° WSW 06:09:32 83° S 06:15:12 10° E visible
12 May - 08:08:05 10° W 08:13:13 83° S 08:20:40 10° ESE visible
12 May - 10:11:13 10° W 10:17:10 43° SSW 10:25:53 10° SE visible
12 May - 12:16:46 10° WSW 12:21:26 16° SW 12:27:04 10° S daylight
13 May - 03:28:07 10° SSW 03:31:49 24° SSE 03:35:24 10° E visible
13 May - 05:30:22 10° WSW 05:34:47 77° SSE 05:39:59 10° E visible
13 May - 07:33:28 10° W 07:38:20 86° S 07:45:07 10° E visible
13 May - 09:36:32 10° W 09:42:08 46° SSW 09:50:21 10° SE visible
13 May - 11:41:28 10° WSW 11:46:17 17° SW 11:52:15 10° S visible
14 May - 02:53:37 10° SSW 02:57:05 20° SSE 03:00:21 10° E daylight
14 May - 04:55:38 10° WSW 05:00:02 69° SSE 05:04:54 10° E visible
14 May - 06:58:50 10° W 07:03:30 89° S 07:09:41 10° E visible
14 May - 09:01:53 10° W 09:07:10 50° SSW 09:14:50 10° SE visible
14 May - 11:06:20 10° WSW 11:11:10 19° SSW 11:17:18 10° S visible
15 May - 02:19:10 10° S 02:22:20 17° SSE 02:25:15 10° ESE daylight
15 May - 04:20:52 10° WSW 04:25:19 61° SSE 04:29:54 10° E visible
15 May - 06:24:10 10° W 06:28:41 88° N 06:34:21 10° E visible
15 May - 08:27:15 10° W 08:32:16 54° SSW 08:39:22 10° SE visible
15 May - 10:31:21 10° WSW 10:36:06 21° SSW 10:42:16 10° SSE visible
16 May - 01:44:47 10° S 01:47:34 14° SSE 01:50:06 10° ESE daylight
16 May - 03:46:03 10° WSW 03:50:36 53° SSE 03:54:58 10° E visible
16 May - 05:49:28 10° W 05:53:54 88° N 05:59:08 10° E visible
16 May - 07:52:37 10° W 07:57:24 59° SSW 08:03:59 10° ESE night (unlit)
16 May - 09:56:26 10° W 10:01:06 23° SSW 10:07:11 10° SSE visible
17 May - 01:10:31 10° S 01:12:44 12° SSE 01:14:47 10° ESE daylight
17 May - 03:11:11 10° SW 03:15:53 46° SSE 03:20:08 10° E visible
17 May - 05:14:41 10° W 05:19:08 88° N 05:24:02 10° E visible
17 May - 07:17:59 10° W 07:22:35 65° SSW 07:28:38 10° ESE visible
17 May - 09:21:37 10° W 09:26:08 25° SSW 09:32:05 10° SSE visible
18 May - 00:36:37 10° SSE 00:37:54 11° SSE 00:39:06 10° SE daylight
18 May - 02:36:15 10° SW 02:41:09 40° SSE 02:45:20 10° E daylight
18 May - 04:39:51 10° W 04:44:23 89° SSE 04:49:02 10° E visible
18 May - 06:43:19 10° W 06:47:48 71° SSW 06:53:24 10° ESE visible
18 May - 08:46:50 10° W 08:51:14 27° SSW 08:56:58 10° SSE night (unlit)
19 May - 02:01:17 10° SW 02:06:23 35° SSE 02:10:33 10° E daylight
19 May - 04:04:55 10° W 04:09:38 85° S 04:14:08 10° E visible
19 May - 06:08:36 10° W 06:13:01 77° SSW 06:18:14 10° ESE visible
19 May - 08:12:04 10° W 08:16:22 30° SSW 08:21:53 10° SSE night (unlit)
